Anzahl Datensätze: 280
min. Temperatur: 14.3 °C
max. Temperatur: 31.1 °C
max. Windgeschwindigkeit: 21.2 km/h
Niederschlagsumme: 0.0 mm
| Datum |
Zeit |
Temp °C |
Feuchte % |
Taupunkt °C |
Luftdruck hPa |
Wind km/h |
Windrichtung |
Strahlung w/m² |
Niederschlag mm |
|---|---|---|---|---|---|---|---|---|---|
| 19.08.2025 | 00:01 | 17.1 | 77 | 13.0 | 1014.3 | 4.3 | N | 0 | 0.0 |
| 19.08.2025 | 00:06 | 16.9 | 77 | 12.8 | 1014.3 | 4.3 | N | 0 | 0.0 |
| 19.08.2025 | 00:11 | 16.9 | 78 | 13.0 | 1014.2 | 4.3 | N | 0 | 0.0 |
| 19.08.2025 | 00:16 | 16.9 | 77 | 12.8 | 1014.2 | 4.3 | N | 0 | 0.0 |
| 19.08.2025 | 00:21 | 16.8 | 77 | 12.7 | 1014.1 | 4.3 | N | 0 | 0.0 |
| 19.08.2025 | 00:46 | 16.6 | 78 | 12.7 | 1014.2 | 0.0 | N | 0 | 0.0 |
| 19.08.2025 | 00:51 | 16.6 | 79 | 12.9 | 1014.2 | 0.0 | N | 0 | 0.0 |
| 19.08.2025 | 00:56 | 16.6 | 78 | 12.7 | 1014.1 | 0.0 | N | 0 | 0.0 |
| 19.08.2025 | 01:01 | 16.5 | 79 | 12.8 | 1014.1 | 0.0 | N | 0 | 0.0 |
| 19.08.2025 | 01:06 | 16.4 | 79 | 12.7 | 1014.1 | 0.0 | N | 0 | 0.0 |
| 19.08.2025 | 01:11 | 16.4 | 79 | 12.7 | 1014.1 | 0.0 | N | 0 | 0.0 |
| 19.08.2025 | 01:16 | 16.4 | 79 | 12.7 | 1014.1 | 0.0 | N | 0 | 0.0 |
| 19.08.2025 | 01:21 | 16.4 | 79 | 12.7 | 1014.0 | 0.0 | N | 0 | 0.0 |
| 19.08.2025 | 01:26 | 16.6 | 79 | 12.9 | 1014.0 | 0.0 | N | 0 | 0.0 |
| 19.08.2025 | 01:31 | 16.5 | 79 | 12.8 | 1014.0 | 0.0 | N | 0 | 0.0 |
| 19.08.2025 | 01:36 | 16.5 | 79 | 12.8 | 1014.0 | 0.0 | N | 0 | 0.0 |
| 19.08.2025 | 01:41 | 16.4 | 79 | 12.7 | 1013.9 | 0.0 | N | 0 | 0.0 |
| 19.08.2025 | 01:46 | 16.4 | 79 | 12.7 | 1013.9 | 0.0 | N | 0 | 0.0 |
| 19.08.2025 | 01:51 | 16.4 | 79 | 12.7 | 1013.9 | 0.0 | N | 0 | 0.0 |
| 19.08.2025 | 01:56 | 16.4 | 79 | 12.7 | 1013.8 | 0.0 | N | 0 | 0.0 |
| 19.08.2025 | 02:01 | 16.3 | 79 | 12.7 | 1013.7 | 0.0 | N | 0 | 0.0 |
| 19.08.2025 | 02:06 | 16.2 | 80 | 12.7 | 1013.7 | 0.0 | N | 0 | 0.0 |
| 19.08.2025 | 02:11 | 16.2 | 80 | 12.7 | 1013.7 | 0.0 | N | 0 | 0.0 |
| 19.08.2025 | 02:16 | 16.1 | 80 | 12.6 | 1013.7 | 0.0 | N | 0 | 0.0 |
| 19.08.2025 | 02:22 | 16.1 | 80 | 12.6 | 1013.7 | 0.0 | N | 0 | 0.0 |
| 19.08.2025 | 02:27 | 15.9 | 81 | 12.6 | 1013.7 | 0.0 | N | 0 | 0.0 |
| 19.08.2025 | 02:32 | 15.9 | 80 | 12.5 | 1013.7 | 0.0 | N | 0 | 0.0 |
| 19.08.2025 | 02:37 | 15.9 | 80 | 12.5 | 1013.7 | 0.0 | N | 0 | 0.0 |
| 19.08.2025 | 02:42 | 15.9 | 81 | 12.6 | 1013.7 | 0.0 | N | 0 | 0.0 |
| 19.08.2025 | 02:47 | 15.9 | 81 | 12.6 | 1013.6 | 0.0 | N | 0 | 0.0 |
| 19.08.2025 | 02:52 | 15.8 | 81 | 12.5 | 1013.6 | 0.0 | N | 0 | 0.0 |
| 19.08.2025 | 02:57 | 15.8 | 81 | 12.5 | 1013.6 | 0.0 | N | 0 | 0.0 |
| 19.08.2025 | 03:02 | 15.7 | 81 | 12.4 | 1013.5 | 0.0 | N | 0 | 0.0 |
| 19.08.2025 | 03:07 | 15.6 | 82 | 12.5 | 1013.5 | 0.0 | N | 0 | 0.0 |
| 19.08.2025 | 03:12 | 15.5 | 82 | 12.4 | 1013.5 | 0.0 | N | 0 | 0.0 |
| 19.08.2025 | 03:17 | 15.5 | 82 | 12.4 | 1013.5 | 0.0 | N | 0 | 0.0 |
| 19.08.2025 | 03:22 | 15.5 | 82 | 12.4 | 1013.5 | 0.0 | N | 0 | 0.0 |
| 19.08.2025 | 03:27 | 15.5 | 82 | 12.4 | 1013.5 | 0.0 | N | 0 | 0.0 |
| 19.08.2025 | 03:32 | 15.4 | 82 | 12.3 | 1013.5 | 0.0 | N | 0 | 0.0 |
| 19.08.2025 | 03:37 | 15.4 | 82 | 12.3 | 1013.5 | 0.0 | N | 0 | 0.0 |
| 19.08.2025 | 03:42 | 15.3 | 82 | 12.2 | 1013.5 | 0.0 | N | 0 | 0.0 |
| 19.08.2025 | 03:47 | 15.2 | 83 | 12.3 | 1013.4 | 0.0 | N | 0 | 0.0 |
| 19.08.2025 | 03:52 | 15.1 | 83 | 12.2 | 1013.4 | 0.0 | N | 0 | 0.0 |
| 19.08.2025 | 03:57 | 15.1 | 83 | 12.2 | 1013.5 | 0.0 | N | 0 | 0.0 |
| 19.08.2025 | 04:02 | 15.1 | 83 | 12.2 | 1013.5 | 0.0 | N | 0 | 0.0 |
| 19.08.2025 | 04:07 | 15.1 | 83 | 12.2 | 1013.5 | 0.0 | N | 0 | 0.0 |
| 19.08.2025 | 04:12 | 15.0 | 83 | 12.1 | 1013.5 | 0.0 | N | 0 | 0.0 |
| 19.08.2025 | 04:17 | 15.0 | 83 | 12.1 | 1013.4 | 0.0 | N | 0 | 0.0 |
| 19.08.2025 | 04:22 | 15.1 | 82 | 12.0 | 1013.4 | 0.0 | N | 0 | 0.0 |
| 19.08.2025 | 04:27 | 15.1 | 82 | 12.0 | 1013.4 | 0.0 | N | 0 | 0.0 |
| 19.08.2025 | 04:32 | 15.0 | 83 | 12.1 | 1013.4 | 0.0 | N | 0 | 0.0 |
| 19.08.2025 | 04:37 | 15.0 | 83 | 12.1 | 1013.3 | 0.0 | N | 0 | 0.0 |
| 19.08.2025 | 04:42 | 14.9 | 83 | 12.0 | 1013.3 | 0.0 | N | 0 | 0.0 |
| 19.08.2025 | 04:47 | 14.8 | 83 | 11.9 | 1013.3 | 0.0 | N | 0 | 0.0 |
| 19.08.2025 | 04:52 | 14.9 | 83 | 12.0 | 1013.3 | 0.0 | N | 0 | 0.0 |
| 19.08.2025 | 04:57 | 14.9 | 83 | 12.0 | 1013.1 | 0.0 | N | 0 | 0.0 |
| 19.08.2025 | 05:02 | 14.9 | 83 | 12.0 | 1013.1 | 0.0 | N | 0 | 0.0 |
| 19.08.2025 | 05:07 | 14.8 | 83 | 11.9 | 1013.2 | 0.0 | N | 0 | 0.0 |
| 19.08.2025 | 05:13 | 14.6 | 84 | 11.9 | 1013.2 | 0.0 | N | 0 | 0.0 |
| 19.08.2025 | 05:18 | 14.7 | 83 | 11.8 | 1013.2 | 0.0 | N | 0 | 0.0 |
| 19.08.2025 | 05:23 | 14.7 | 83 | 11.8 | 1013.2 | 0.0 | N | 0 | 0.0 |
| 19.08.2025 | 05:28 | 14.7 | 83 | 11.8 | 1013.2 | 0.0 | N | 0 | 0.0 |
| 19.08.2025 | 05:33 | 14.7 | 83 | 11.8 | 1013.1 | 0.0 | N | 0 | 0.0 |
| 19.08.2025 | 05:38 | 14.6 | 83 | 11.7 | 1013.1 | 0.0 | N | 0 | 0.0 |
| 19.08.2025 | 05:43 | 14.6 | 84 | 11.9 | 1013.2 | 0.0 | N | 0 | 0.0 |
| 19.08.2025 | 05:48 | 14.6 | 83 | 11.7 | 1013.2 | 0.0 | N | 0 | 0.0 |
| 19.08.2025 | 05:53 | 14.7 | 83 | 11.8 | 1013.2 | 0.0 | N | 0 | 0.0 |
| 19.08.2025 | 05:58 | 14.6 | 83 | 11.7 | 1013.1 | 0.0 | N | 0 | 0.0 |
| 19.08.2025 | 06:03 | 14.6 | 84 | 11.9 | 1013.1 | 0.0 | N | 0 | 0.0 |
| 19.08.2025 | 06:08 | 14.6 | 83 | 11.7 | 1013.1 | 0.0 | N | 0 | 0.0 |
| 19.08.2025 | 06:13 | 14.5 | 84 | 11.8 | 1013.1 | 0.0 | N | 0 | 0.0 |
| 19.08.2025 | 06:18 | 14.6 | 83 | 11.7 | 1013.2 | 0.0 | N | 0 | 0.0 |
| 19.08.2025 | 06:23 | 14.5 | 84 | 11.8 | 1013.2 | 0.0 | N | 5 | 0.0 |
| 19.08.2025 | 06:28 | 14.4 | 84 | 11.7 | 1013.2 | 0.0 | N | 7 | 0.0 |
| 19.08.2025 | 06:33 | 14.3 | 84 | 11.6 | 1013.1 | 0.0 | N | 9 | 0.0 |
| 19.08.2025 | 06:38 | 14.3 | 84 | 11.6 | 1013.2 | 0.0 | N | 11 | 0.0 |
| 19.08.2025 | 06:43 | 14.4 | 84 | 11.7 | 1013.2 | 0.0 | N | 12 | 0.0 |
| 19.08.2025 | 06:48 | 14.3 | 84 | 11.6 | 1013.2 | 0.0 | N | 14 | 0.0 |
| 19.08.2025 | 06:53 | 14.3 | 84 | 11.6 | 1013.2 | 0.0 | N | 16 | 0.0 |
| 19.08.2025 | 06:58 | 14.3 | 84 | 11.6 | 1013.2 | 0.0 | N | 18 | 0.0 |
| 19.08.2025 | 07:03 | 14.4 | 84 | 11.7 | 1013.2 | 0.0 | N | 21 | 0.0 |
| 19.08.2025 | 07:08 | 14.4 | 84 | 11.7 | 1013.1 | 0.0 | N | 23 | 0.0 |
| 19.08.2025 | 07:13 | 14.6 | 84 | 11.9 | 1013.1 | 0.0 | N | 25 | 0.0 |
| 19.08.2025 | 07:18 | 14.6 | 84 | 11.9 | 1013.1 | 0.0 | N | 25 | 0.0 |
| 19.08.2025 | 07:23 | 14.7 | 84 | 12.0 | 1013.1 | 0.0 | N | 26 | 0.0 |
| 19.08.2025 | 07:28 | 14.8 | 83 | 11.9 | 1013.1 | 0.0 | N | 28 | 0.0 |
| 19.08.2025 | 07:33 | 14.9 | 83 | 12.0 | 1013.2 | 0.0 | N | 30 | 0.0 |
| 19.08.2025 | 07:38 | 15.1 | 83 | 12.2 | 1013.1 | 0.0 | N | 32 | 0.0 |
| 19.08.2025 | 07:43 | 15.3 | 83 | 12.4 | 1013.2 | 0.0 | N | 35 | 0.0 |
| 19.08.2025 | 07:48 | 15.4 | 82 | 12.3 | 1013.2 | 0.0 | N | 37 | 0.0 |
| 19.08.2025 | 07:53 | 15.6 | 82 | 12.5 | 1013.3 | 0.0 | N | 37 | 0.0 |
| 19.08.2025 | 07:58 | 15.8 | 81 | 12.5 | 1013.3 | 0.0 | N | 42 | 0.0 |
| 19.08.2025 | 08:03 | 15.9 | 81 | 12.6 | 1013.3 | 0.0 | N | 40 | 0.0 |
| 19.08.2025 | 08:08 | 16.2 | 80 | 12.7 | 1013.3 | 0.0 | N | 42 | 0.0 |
| 19.08.2025 | 08:13 | 16.4 | 79 | 12.7 | 1013.4 | 1.8 | NNW | 49 | 0.0 |
| 19.08.2025 | 08:18 | 16.6 | 79 | 12.9 | 1013.4 | 1.8 | NNW | 56 | 0.0 |
| 19.08.2025 | 08:24 | 16.7 | 78 | 12.8 | 1013.4 | 1.8 | NNW | 56 | 0.0 |
| 19.08.2025 | 08:29 | 16.8 | 78 | 12.9 | 1013.3 | 1.8 | NNW | 51 | 0.0 |
| 19.08.2025 | 08:49 | 17.6 | 76 | 13.3 | 1013.2 | 0.0 | N | 295 | 0.0 |
| 19.08.2025 | 08:54 | 17.8 | 75 | 13.3 | 1013.2 | 0.0 | N | 311 | 0.0 |
| 19.08.2025 | 08:59 | 17.9 | 75 | 13.4 | 1013.2 | 0.0 | N | 329 | 0.0 |
| 19.08.2025 | 09:04 | 18.2 | 75 | 13.7 | 1013.2 | 0.0 | N | 345 | 0.0 |
| 19.08.2025 | 09:09 | 18.4 | 75 | 13.9 | 1013.2 | 0.0 | N | 357 | 0.0 |
| 19.08.2025 | 09:14 | 18.8 | 73 | 13.9 | 1013.3 | 0.0 | N | 374 | 0.0 |
| 19.08.2025 | 09:19 | 19.0 | 73 | 14.0 | 1013.2 | 0.0 | N | 388 | 0.0 |
| 19.08.2025 | 09:24 | 19.3 | 72 | 14.1 | 1013.1 | 0.0 | N | 404 | 0.0 |
| 19.08.2025 | 09:29 | 19.4 | 71 | 14.0 | 1013.1 | 0.0 | N | 420 | 0.0 |
| 19.08.2025 | 09:34 | 19.6 | 72 | 14.4 | 1013.0 | 0.0 | N | 431 | 0.0 |
| 19.08.2025 | 09:39 | 20.0 | 71 | 14.6 | 1013.1 | 0.0 | N | 441 | 0.0 |
| 19.08.2025 | 09:44 | 20.0 | 71 | 14.6 | 1013.1 | 0.0 | N | 455 | 0.0 |
| 19.08.2025 | 09:49 | 20.2 | 70 | 14.6 | 1013.0 | 0.0 | N | 468 | 0.0 |
| 19.08.2025 | 09:54 | 20.4 | 71 | 15.0 | 1013.0 | 0.0 | N | 482 | 0.0 |
| 19.08.2025 | 09:59 | 20.7 | 69 | 14.8 | 1013.0 | 0.0 | N | 494 | 0.0 |
| 19.08.2025 | 10:04 | 20.8 | 69 | 14.9 | 1013.0 | 0.0 | N | 504 | 0.0 |
| 19.08.2025 | 10:09 | 21.2 | 69 | 15.3 | 1012.9 | 0.0 | N | 497 | 0.0 |
| 19.08.2025 | 10:14 | 21.4 | 67 | 15.0 | 1012.9 | 0.0 | N | 534 | 0.0 |
| 19.08.2025 | 10:19 | 21.6 | 67 | 15.2 | 1012.9 | 0.0 | N | 543 | 0.0 |
| 19.08.2025 | 10:24 | 21.7 | 66 | 15.1 | 1012.9 | 10.4 | ONO | 454 | 0.0 |
| 19.08.2025 | 10:29 | 21.9 | 67 | 15.5 | 1012.9 | 10.4 | ONO | 564 | 0.0 |
| 19.08.2025 | 10:34 | 22.0 | 67 | 15.6 | 1012.8 | 10.4 | NNW | 577 | 0.0 |
| 19.08.2025 | 10:39 | 22.3 | 66 | 15.6 | 1012.8 | 10.4 | NNO | 587 | 0.0 |
| 19.08.2025 | 10:44 | 22.4 | 65 | 15.5 | 1012.8 | 8.3 | ONO | 598 | 0.0 |
| 19.08.2025 | 10:49 | 22.9 | 65 | 16.0 | 1012.8 | 8.3 | NNW | 608 | 0.0 |
| 19.08.2025 | 10:54 | 22.8 | 65 | 15.9 | 1012.8 | 1.8 | N | 619 | 0.0 |
| 19.08.2025 | 10:59 | 22.9 | 63 | 15.5 | 1012.8 | 1.8 | SO | 613 | 0.0 |
| 19.08.2025 | 11:04 | 23.2 | 64 | 16.0 | 1012.8 | 6.1 | NNW | 540 | 0.0 |
| 19.08.2025 | 11:09 | 23.7 | 64 | 16.5 | 1012.8 | 6.1 | N | 381 | 0.0 |
| 19.08.2025 | 11:14 | 24.0 | 63 | 16.5 | 1012.8 | 12.6 | NNW | 654 | 0.0 |
| 19.08.2025 | 11:20 | 23.9 | 63 | 16.4 | 1012.7 | 6.1 | NW | 664 | 0.0 |
| 19.08.2025 | 11:25 | 24.3 | 61 | 16.3 | 1012.7 | 4.3 | ONO | 670 | 0.0 |
| 19.08.2025 | 11:30 | 24.3 | 61 | 16.3 | 1012.7 | 1.8 | WNW | 680 | 0.0 |
| 19.08.2025 | 11:35 | 24.7 | 61 | 16.7 | 1012.7 | 4.3 | NNW | 687 | 0.0 |
| 19.08.2025 | 11:40 | 25.2 | 60 | 16.9 | 1012.7 | 8.3 | NO | 696 | 0.0 |
| 19.08.2025 | 11:45 | 25.3 | 59 | 16.7 | 1012.7 | 6.1 | ONO | 703 | 0.0 |
| 19.08.2025 | 11:50 | 25.6 | 59 | 17.0 | 1012.7 | 0.0 | N | 708 | 0.0 |
| 19.08.2025 | 11:55 | 26.1 | 57 | 16.9 | 1012.6 | 4.3 | S | 717 | 0.0 |
| 19.08.2025 | 12:00 | 26.0 | 57 | 16.8 | 1012.5 | 1.8 | OSO | 722 | 0.0 |
| 19.08.2025 | 12:05 | 26.0 | 57 | 16.8 | 1012.5 | 1.8 | S | 729 | 0.0 |
| 19.08.2025 | 12:10 | 26.3 | 56 | 16.8 | 1012.5 | 1.8 | NO | 733 | 0.0 |
| 19.08.2025 | 12:15 | 26.4 | 55 | 16.6 | 1012.4 | 4.3 | NO | 740 | 0.0 |
| 19.08.2025 | 12:20 | 26.9 | 52 | 16.2 | 1012.3 | 1.8 | O | 749 | 0.0 |
| 19.08.2025 | 12:25 | 26.9 | 54 | 16.8 | 1012.2 | 4.3 | NO | 749 | 0.0 |
| 19.08.2025 | 12:30 | 27.1 | 53 | 16.7 | 1012.1 | 4.3 | NNO | 758 | 0.0 |
| 19.08.2025 | 12:35 | 27.3 | 53 | 16.9 | 1012.1 | 6.1 | WNW | 759 | 0.0 |
| 19.08.2025 | 12:40 | 27.3 | 53 | 16.9 | 1012.0 | 10.4 | NW | 763 | 0.0 |
| 19.08.2025 | 12:45 | 27.4 | 54 | 17.3 | 1011.9 | 6.1 | NNW | 763 | 0.0 |
| 19.08.2025 | 12:50 | 27.8 | 52 | 17.0 | 1011.9 | 8.3 | N | 768 | 0.0 |
| 19.08.2025 | 12:55 | 28.2 | 50 | 16.8 | 1011.9 | 4.3 | SO | 768 | 0.0 |
| 19.08.2025 | 13:00 | 28.1 | 51 | 17.0 | 1011.8 | 8.3 | OSO | 770 | 0.0 |
| 19.08.2025 | 13:05 | 28.3 | 50 | 16.9 | 1011.7 | 10.4 | NNW | 777 | 0.0 |
| 19.08.2025 | 13:10 | 28.3 | 50 | 16.9 | 1011.7 | 10.4 | NNW | 779 | 0.0 |
| 19.08.2025 | 13:15 | 28.1 | 49 | 16.4 | 1011.7 | 6.1 | W | 780 | 0.0 |
| 19.08.2025 | 13:20 | 28.6 | 53 | 18.1 | 1011.5 | 10.4 | O | 777 | 0.0 |
| 19.08.2025 | 13:25 | 28.9 | 48 | 16.8 | 1011.5 | 6.1 | WNW | 779 | 0.0 |
| 19.08.2025 | 13:30 | 28.8 | 48 | 16.7 | 1011.5 | 4.3 | O | 780 | 0.0 |
| 19.08.2025 | 13:35 | 28.6 | 49 | 16.8 | 1011.5 | 1.8 | W | 782 | 0.0 |
| 19.08.2025 | 13:40 | 28.8 | 48 | 16.7 | 1011.4 | 8.3 | SSW | 779 | 0.0 |
| 19.08.2025 | 13:45 | 28.9 | 48 | 16.8 | 1011.3 | 4.3 | NW | 780 | 0.0 |
| 19.08.2025 | 13:50 | 28.9 | 51 | 17.7 | 1011.3 | 4.3 | NNW | 784 | 0.0 |
| 19.08.2025 | 13:55 | 29.4 | 50 | 17.9 | 1011.2 | 6.1 | NNW | 779 | 0.0 |
| 19.08.2025 | 14:00 | 29.3 | 48 | 17.2 | 1011.2 | 6.1 | NNW | 777 | 0.0 |
| 19.08.2025 | 14:06 | 29.5 | 47 | 17.0 | 1011.0 | 4.3 | O | 766 | 0.0 |
| 19.08.2025 | 14:11 | 29.6 | 48 | 17.4 | 1011.1 | 8.3 | SO | 780 | 0.0 |
| 19.08.2025 | 14:16 | 29.6 | 47 | 17.1 | 1011.0 | 6.1 | OSO | 745 | 0.0 |
| 19.08.2025 | 14:21 | 29.2 | 48 | 17.1 | 1011.0 | 8.3 | SW | 766 | 0.0 |
| 19.08.2025 | 14:26 | 29.2 | 47 | 16.7 | 1011.0 | 1.8 | SSO | 761 | 0.0 |
| 19.08.2025 | 14:31 | 29.4 | 47 | 16.9 | 1010.9 | 0.0 | SSO | 786 | 0.0 |
| 19.08.2025 | 14:36 | 30.0 | 46 | 17.1 | 1010.8 | 10.4 | SW | 800 | 0.0 |
| 19.08.2025 | 14:41 | 30.2 | 46 | 17.3 | 1010.8 | 8.3 | SSW | 770 | 0.0 |
| 19.08.2025 | 14:46 | 30.1 | 47 | 17.5 | 1010.8 | 0.0 | WNW | 768 | 0.0 |
| 19.08.2025 | 14:51 | 29.5 | 47 | 17.0 | 1010.6 | 8.3 | W | 758 | 0.0 |
| 19.08.2025 | 14:56 | 29.9 | 46 | 17.0 | 1010.6 | 6.1 | WSW | 749 | 0.0 |
| 19.08.2025 | 15:01 | 29.8 | 47 | 17.3 | 1010.5 | 10.4 | SSO | 742 | 0.0 |
| 19.08.2025 | 15:06 | 29.9 | 46 | 17.0 | 1010.5 | 8.3 | SSW | 737 | 0.0 |
| 19.08.2025 | 15:11 | 30.3 | 46 | 17.4 | 1010.5 | 6.1 | SW | 728 | 0.0 |
| 19.08.2025 | 15:16 | 30.2 | 46 | 17.3 | 1010.4 | 4.3 | W | 726 | 0.0 |
| 19.08.2025 | 15:21 | 30.6 | 45 | 17.3 | 1010.4 | 6.1 | SSO | 715 | 0.0 |
| 19.08.2025 | 15:26 | 30.6 | 45 | 17.3 | 1010.4 | 4.3 | SSW | 712 | 0.0 |
| 19.08.2025 | 15:31 | 30.5 | 43 | 16.5 | 1010.4 | 4.3 | N | 705 | 0.0 |
| 19.08.2025 | 15:36 | 30.3 | 44 | 16.7 | 1010.3 | 6.1 | SW | 102 | 0.0 |
| 19.08.2025 | 15:41 | 29.4 | 43 | 15.5 | 1010.3 | 8.3 | SO | 160 | 0.0 |
| 19.08.2025 | 15:46 | 29.1 | 46 | 16.3 | 1010.2 | 6.1 | SO | 329 | 0.0 |
| 19.08.2025 | 15:51 | 30.1 | 46 | 17.2 | 1010.2 | 6.1 | SO | 715 | 0.0 |
| 19.08.2025 | 15:56 | 30.9 | 43 | 16.9 | 1010.2 | 4.3 | S | 700 | 0.0 |
| 19.08.2025 | 16:01 | 30.6 | 44 | 17.0 | 1010.2 | 10.4 | S | 668 | 0.0 |
| 19.08.2025 | 16:06 | 30.7 | 42 | 16.3 | 1010.0 | 21.2 | W | 636 | 0.0 |
| 19.08.2025 | 16:11 | 30.7 | 42 | 16.3 | 1010.1 | 8.3 | WSW | 622 | 0.0 |
| 19.08.2025 | 16:16 | 30.8 | 42 | 16.4 | 1010.0 | 4.3 | W | 617 | 0.0 |
| 19.08.2025 | 16:21 | 30.6 | 42 | 16.2 | 1010.0 | 8.3 | WSW | 601 | 0.0 |
| 19.08.2025 | 16:26 | 30.7 | 41 | 15.9 | 1009.9 | 4.3 | W | 598 | 0.0 |
| 19.08.2025 | 16:31 | 30.6 | 45 | 17.3 | 1009.8 | 4.3 | SW | 577 | 0.0 |
| 19.08.2025 | 16:36 | 30.6 | 40 | 15.5 | 1009.8 | 8.3 | W | 570 | 0.0 |
| 19.08.2025 | 16:41 | 31.1 | 40 | 15.9 | 1009.8 | 4.3 | S | 566 | 0.0 |
| 19.08.2025 | 16:46 | 30.8 | 39 | 15.2 | 1009.8 | 8.3 | WSW | 555 | 0.0 |
| 19.08.2025 | 16:52 | 30.6 | 39 | 15.1 | 1009.7 | 0.0 | WSW | 534 | 0.0 |
| 19.08.2025 | 16:57 | 30.3 | 40 | 15.2 | 1009.6 | 4.3 | W | 526 | 0.0 |
| 19.08.2025 | 17:02 | 30.5 | 38 | 14.6 | 1009.6 | 6.1 | SSW | 517 | 0.0 |
| 19.08.2025 | 17:07 | 30.4 | 38 | 14.5 | 1009.6 | 1.8 | WNW | 504 | 0.0 |
| 19.08.2025 | 17:12 | 30.3 | 40 | 15.2 | 1009.4 | 6.1 | NW | 494 | 0.0 |
| 19.08.2025 | 17:17 | 30.5 | 39 | 15.0 | 1009.5 | 16.9 | WSW | 485 | 0.0 |
| 19.08.2025 | 17:22 | 30.8 | 39 | 15.2 | 1009.4 | 4.3 | W | 473 | 0.0 |
| 19.08.2025 | 17:27 | 30.6 | 39 | 15.1 | 1009.5 | 6.1 | WNW | 457 | 0.0 |
| 19.08.2025 | 17:32 | 30.6 | 38 | 14.7 | 1009.4 | 6.1 | WSW | 438 | 0.0 |
| 19.08.2025 | 17:37 | 30.4 | 40 | 15.3 | 1009.4 | 0.0 | W | 422 | 0.0 |
| 19.08.2025 | 17:42 | 30.4 | 39 | 14.9 | 1009.3 | 4.3 | NW | 410 | 0.0 |
| 19.08.2025 | 17:47 | 30.2 | 39 | 14.7 | 1009.3 | 4.3 | SW | 387 | 0.0 |
| 19.08.2025 | 17:52 | 30.3 | 39 | 14.8 | 1009.2 | 0.0 | W | 374 | 0.0 |
| 19.08.2025 | 17:57 | 30.1 | 41 | 15.4 | 1009.3 | 6.1 | WNW | 362 | 0.0 |
| 19.08.2025 | 18:02 | 30.1 | 40 | 15.0 | 1009.3 | 4.3 | W | 341 | 0.0 |
| 19.08.2025 | 18:07 | 30.0 | 43 | 16.1 | 1009.2 | 6.1 | WSW | 322 | 0.0 |
| 19.08.2025 | 18:12 | 29.8 | 42 | 15.5 | 1009.2 | 0.0 | WSW | 302 | 0.0 |
| 19.08.2025 | 18:17 | 29.7 | 42 | 15.4 | 1009.2 | 0.0 | WSW | 301 | 0.0 |
| 19.08.2025 | 18:22 | 29.8 | 42 | 15.5 | 1009.1 | 1.8 | S | 292 | 0.0 |
| 19.08.2025 | 18:27 | 29.8 | 44 | 16.2 | 1009.1 | 4.3 | WSW | 278 | 0.0 |
| 19.08.2025 | 18:32 | 29.7 | 44 | 16.1 | 1009.2 | 4.3 | SW | 255 | 0.0 |
| 19.08.2025 | 18:37 | 29.6 | 44 | 16.1 | 1009.2 | 4.3 | S | 200 | 0.0 |
| 19.08.2025 | 18:42 | 29.4 | 44 | 15.9 | 1009.2 | 6.1 | SSW | 188 | 0.0 |
| 19.08.2025 | 18:47 | 29.2 | 45 | 16.0 | 1009.2 | 1.8 | SW | 151 | 0.0 |
| 19.08.2025 | 18:52 | 29.0 | 47 | 16.5 | 1009.2 | 4.3 | SW | 197 | 0.0 |
| 19.08.2025 | 18:57 | 29.0 | 47 | 16.5 | 1009.1 | 1.8 | SW | 178 | 0.0 |
| 19.08.2025 | 19:02 | 28.8 | 47 | 16.4 | 1009.1 | 0.0 | SW | 158 | 0.0 |
| 19.08.2025 | 19:07 | 28.7 | 48 | 16.6 | 1009.0 | 1.8 | SW | 127 | 0.0 |
| 19.08.2025 | 19:12 | 28.4 | 49 | 16.7 | 1009.0 | 0.0 | SW | 113 | 0.0 |
| 19.08.2025 | 19:17 | 28.4 | 50 | 17.0 | 1009.0 | 0.0 | SW | 104 | 0.0 |
| 19.08.2025 | 19:22 | 28.2 | 51 | 17.1 | 1008.9 | 0.0 | SW | 93 | 0.0 |
| 19.08.2025 | 19:27 | 27.9 | 52 | 17.1 | 1008.9 | 0.0 | SW | 81 | 0.0 |
| 19.08.2025 | 19:32 | 27.8 | 53 | 17.3 | 1009.0 | 0.0 | SW | 70 | 0.0 |
| 19.08.2025 | 19:37 | 27.6 | 54 | 17.5 | 1009.0 | 0.0 | SW | 51 | 0.0 |
| 19.08.2025 | 19:42 | 27.4 | 54 | 17.3 | 1009.0 | 0.0 | SW | 40 | 0.0 |
| 19.08.2025 | 19:47 | 27.1 | 55 | 17.3 | 1009.0 | 0.0 | SW | 33 | 0.0 |
| 19.08.2025 | 19:53 | 26.7 | 57 | 17.5 | 1009.0 | 0.0 | SW | 32 | 0.0 |
| 19.08.2025 | 19:58 | 26.4 | 57 | 17.2 | 1009.0 | 0.0 | SW | 26 | 0.0 |
| 19.08.2025 | 20:03 | 26.1 | 59 | 17.5 | 1009.0 | 0.0 | SW | 25 | 0.0 |
| 19.08.2025 | 20:08 | 25.6 | 60 | 17.3 | 1009.0 | 0.0 | SW | 21 | 0.0 |
| 19.08.2025 | 20:13 | 25.2 | 63 | 17.7 | 1009.0 | 0.0 | SW | 18 | 0.0 |
| 19.08.2025 | 20:18 | 24.8 | 63 | 17.3 | 1009.0 | 0.0 | SW | 14 | 0.0 |
| 19.08.2025 | 20:23 | 24.5 | 64 | 17.2 | 1009.1 | 0.0 | SW | 12 | 0.0 |
| 19.08.2025 | 20:28 | 24.1 | 66 | 17.3 | 1009.1 | 0.0 | SW | 7 | 0.0 |
| 19.08.2025 | 20:33 | 24.0 | 67 | 17.5 | 1009.2 | 0.0 | SW | 5 | 0.0 |
| 19.08.2025 | 20:38 | 23.7 | 69 | 17.7 | 1009.2 | 0.0 | SW | 0 | 0.0 |
| 19.08.2025 | 20:43 | 23.4 | 71 | 17.8 | 1009.2 | 0.0 | SW | 0 | 0.0 |
| 19.08.2025 | 20:48 | 23.3 | 71 | 17.7 | 1009.2 | 1.8 | SW | 0 | 0.0 |
| 19.08.2025 | 20:53 | 23.1 | 71 | 17.6 | 1009.2 | 0.0 | SW | 0 | 0.0 |
| 19.08.2025 | 20:58 | 22.9 | 72 | 17.6 | 1009.3 | 0.0 | SW | 0 | 0.0 |
| 19.08.2025 | 21:03 | 22.7 | 72 | 17.4 | 1009.3 | 0.0 | SW | 0 | 0.0 |
| 19.08.2025 | 21:08 | 22.5 | 72 | 17.2 | 1009.4 | 0.0 | SW | 0 | 0.0 |
| 19.08.2025 | 21:13 | 22.4 | 73 | 17.3 | 1009.4 | 0.0 | SW | 0 | 0.0 |
| 19.08.2025 | 21:18 | 22.2 | 73 | 17.1 | 1009.4 | 0.0 | SW | 0 | 0.0 |
| 19.08.2025 | 21:23 | 21.9 | 74 | 17.1 | 1009.4 | 0.0 | SW | 0 | 0.0 |
| 19.08.2025 | 21:28 | 21.7 | 75 | 17.1 | 1009.4 | 0.0 | SW | 0 | 0.0 |
| 19.08.2025 | 21:33 | 21.6 | 75 | 17.0 | 1009.4 | 0.0 | SW | 0 | 0.0 |
| 19.08.2025 | 21:38 | 21.6 | 77 | 17.4 | 1009.5 | 0.0 | SW | 0 | 0.0 |
| 19.08.2025 | 21:43 | 21.4 | 76 | 17.0 | 1009.5 | 0.0 | SW | 0 | 0.0 |
| 19.08.2025 | 21:48 | 21.3 | 77 | 17.1 | 1009.5 | 0.0 | SW | 0 | 0.0 |
| 19.08.2025 | 21:53 | 21.2 | 76 | 16.8 | 1009.4 | 0.0 | SW | 0 | 0.0 |
| 19.08.2025 | 21:58 | 20.9 | 76 | 16.5 | 1009.4 | 0.0 | SW | 0 | 0.0 |
| 19.08.2025 | 22:03 | 20.8 | 76 | 16.4 | 1009.4 | 0.0 | SW | 0 | 0.0 |
| 19.08.2025 | 22:08 | 20.6 | 77 | 16.4 | 1009.4 | 0.0 | SW | 0 | 0.0 |
| 19.08.2025 | 22:13 | 20.5 | 77 | 16.3 | 1009.3 | 0.0 | SW | 0 | 0.0 |
| 19.08.2025 | 22:18 | 20.5 | 77 | 16.3 | 1009.4 | 2.2 | SW | 0 | 0.0 |
| 19.08.2025 | 22:23 | 20.2 | 78 | 16.2 | 1009.3 | 1.8 | SW | 0 | 0.0 |
| 19.08.2025 | 22:28 | 19.7 | 79 | 16.0 | 1009.3 | 4.3 | SW | 0 | 0.0 |
| 19.08.2025 | 22:33 | 19.7 | 80 | 16.2 | 1009.3 | 1.8 | SW | 0 | 0.0 |
| 19.08.2025 | 22:38 | 19.7 | 80 | 16.2 | 1009.2 | 0.0 | SW | 0 | 0.0 |
| 19.08.2025 | 22:43 | 19.7 | 80 | 16.2 | 1009.2 | 0.0 | SW | 0 | 0.0 |
| 19.08.2025 | 22:48 | 19.6 | 79 | 15.9 | 1009.2 | 0.0 | SW | 0 | 0.0 |
| 19.08.2025 | 22:53 | 19.7 | 79 | 16.0 | 1009.1 | 0.0 | SW | 0 | 0.0 |
| 19.08.2025 | 22:58 | 19.7 | 80 | 16.2 | 1009.1 | 0.0 | SW | 0 | 0.0 |
| 19.08.2025 | 23:04 | 19.5 | 80 | 16.0 | 1009.1 | 0.0 | SW | 0 | 0.0 |
| 19.08.2025 | 23:09 | 19.2 | 80 | 15.7 | 1009.1 | 0.0 | SW | 0 | 0.0 |
| 19.08.2025 | 23:14 | 19.1 | 81 | 15.8 | 1009.0 | 0.0 | SW | 0 | 0.0 |
| 19.08.2025 | 23:19 | 19.1 | 81 | 15.8 | 1009.0 | 0.0 | SW | 0 | 0.0 |
| 19.08.2025 | 23:24 | 19.1 | 81 | 15.8 | 1009.0 | 0.0 | SW | 0 | 0.0 |
| 19.08.2025 | 23:29 | 18.8 | 81 | 15.5 | 1008.9 | 0.0 | SW | 0 | 0.0 |
| 19.08.2025 | 23:34 | 18.7 | 82 | 15.6 | 1008.8 | 0.0 | SW | 0 | 0.0 |
| 19.08.2025 | 23:39 | 18.7 | 82 | 15.6 | 1008.9 | 0.0 | SW | 0 | 0.0 |
| 19.08.2025 | 23:44 | 18.6 | 82 | 15.5 | 1008.9 | 0.0 | SW | 0 | 0.0 |
| 19.08.2025 | 23:49 | 18.5 | 82 | 15.4 | 1008.9 | 0.0 | SW | 0 | 0.0 |
| 19.08.2025 | 23:54 | 18.4 | 83 | 15.5 | 1008.9 | 0.0 | SW | 0 | 0.0 |
| 19.08.2025 | 23:59 | 18.2 | 83 | 15.3 | 1008.9 | 0.0 | SW | 0 | 0.0 |